Location: Condor
(52.3263°N, 114.5541°W)
Time: 22:20:40
(UTC+00:00)

Oscar 19 - Pass Details

Date: 10 December 2023
Orbit: 771 x 789 km, 98.9° (Epoch: 04 March)

Event Time Altitude Azimuth Distance (km) Brightness Sun altitude
Rises 12:36:10 0° 16° (NNE) 3,278 14.0 -26.2°
Reaches altitude 10° 12:38:29 10° 17° (NNE) 2,348 13.2 -25.8°
Maximum altitude 12:43:41 83° 107° (ESE) 796 10.6 -25.0°
Drops below altitude 10° 12:48:52 10° 195° (SSW) 2,342 13.0 -24.3°
Sets 12:51:11 0° 196° (SSW) 3,269 13.8 -23.9°
